Weather in Roznov pod Radhostem

Czech Republic     49°27′35″N   18°08′11″E
temp.,
°C
wind,
m/s
gust,
m/s
humid.,
%
clouds,
%
prec.,
mm/h
press.,
hPa
HPBL,
m
18 april, sun
sun1823:00+1nne12100100 0.0 1021160
02:00+1nne12100100 0.0 1020200
05:00+1nne12100100 0.0 1019196
08:00+2nne1399100 0.0 1019266
11:00+3nne1290100 0.0 1019504
14:00+5n2285100 0.1 1019539
17:00+6nne3380100 0.0 1018661
20:00+3nne229594 0.0 101942
19 april, mon
mon1923:00+2e1196100 0.0 101911
02:00+2ne1195100 0.0 101912
05:00+3nne1295100 0.1 101892
08:00+4nne2390100 0.1 1018232
11:00+7n3482100 0.1 1016756
14:00+8nne3480100 0.3 1016822
17:00+7nne2384100 0.4 1015654
20:00+5nne1193100 0.6 101511
20 april, tue
tue2023:00+4nnw0095100 0.0 101511
02:00+4nne1199100 1.3 101562
05:00+3ne119844 0.3 101527
08:00+6nne268875 0.3 1015416
11:00+9nne346478 0.1 10141254
14:00+10n336084 0.4 10131296
17:00+10n336259 0.3 10131136
20:00+5nne119153 0.4 101410
21 april, wed
wed2123:00+3ese11935 0.0 101510
02:00+3s00945 0.0 101510
05:00+2sse11945 0.0 101510
08:00+7sw11815 0.0 1015231
11:00+10w34585 0.4 10141240
14:00+12w33505 0.6 10131593
17:00+11wsw456325 0.7 10131141
20:00+7sw228892 1.4 101422
22 april, thu
thu2223:00+5ssw229328 0.4 101522
02:00+4s229410 0.4 101618
05:00+3ssw22935 0.0 101622
08:00+6wsw128276 0.0 1017327
11:00+7w3487100 0.6 1017917
14:00+4wnw2497100 6.1 1019519
17:00+6w366119 0.2 10181338
20:00+2wnw228252 0.3 102137